CDT,Max TemperatureF,Mean TemperatureF,Min TemperatureF,Max Dew PointF,MeanDew PointF,Min DewpointF,Max Humidity, Mean Humidity, Min Humidity, Max Sea Level PressureIn, Mean Sea Level PressureIn, Min Sea Level PressureIn, Max VisibilityMiles, Mean VisibilityMiles, Min VisibilityMiles, Max Wind SpeedMPH, Mean Wind SpeedMPH, Max Gust SpeedMPH,PrecipitationIn, CloudCover, Events, WindDirDegrees
2013-10-1,82,69,55,58,55,50,87,48,9,29.97,29.88,29.82,10,10,8,17,9,23,0.00,0,,233
2013-10-2,82,68,54,60,52,44,83,58,32,30.05,29.97,29.88,10,10,10,17,7,22,0.00,1,,122
2013-10-3,80,72,63,67,63,58,100,76,52,29.88,29.83,29.78,10,9,3,16,7,22,T,4,Rain-Thunderstorm,171
2013-10-4,78,70,62,70,63,60,93,81,69,29.96,29.87,29.80,10,7,0,36,9,46,2.09,5,Rain-Thunderstorm,116
2013-10-5,73,57,41,66,51,34,89,65,40,29.89,29.83,29.79,10,10,10,17,7,,T,4,Rain,226
2013-10-6,50,45,39,45,39,37,93,80,66,29.84,29.77,29.73,10,10,5,15,6,18,0.02,7,Rain,252
2013-10-7,73,57,41,47,42,38,96,62,27,30.06,29.95,29.83,10,10,10,21,8,30,0.00,2,,278
2013-10-8,77,61,45,48,41,25,86,55,23,30.12,30.07,30.03,10,10,10,20,8,28,0.00,0,,173
2013-10-9,73,61,49,47,41,33,72,53,33,30.17,30.11,30.07,10,10,10,13,7,18,0.00,0,,149
2013-10-10,75,59,43,52,47,41,92,67,41,30.12,30.05,29.96,10,10,8,14,6,23,0.00,0,,137
2013-10-11,76,65,53,56,53,48,93,68,43,29.96,29.88,29.81,10,10,7,22,11,31,0.00,2,,151
2013-10-12,66,55,44,58,43,30,77,54,30,30.22,30.01,29.83,10,10,6,23,11,30,0.01,1,Rain,264
2013-10-13,63,50,36,37,31,28,82,55,27,30.45,30.37,30.24,10,10,9,12,4,16,0.00,0,,347
2013-10-14,65,51,37,40,35,31,82,60,37,30.38,30.23,29.97,10,10,10,21,11,28,T,1,Rain,123
2013-10-15,59,54,49,57,47,39,83,69,55,29.93,29.85,29.81,10,9,3,23,15,30,0.13,8,Rain,215
2013-10-16,51,49,46,45,42,41,93,84,74,29.99,29.94,29.87,10,10,4,20,12,26,T,8,Rain,279
2013-10-17,61,51,41,42,37,31,89,61,33,29.95,29.88,29.82,10,10,10,17,7,23,0.00,4,,249
2013-10-18,51,45,39,40,34,30,89,68,46,30.02,29.96,29.88,10,9,2,22,11,29,0.00,5,,282
2013-10-19,52,44,35,37,33,30,92,70,48,29.94,29.85,29.79,10,9,5,22,9,28,T,4,Rain,245
2013-10-20,58,46,34,44,37,31,92,74,55,29.87,29.79,29.72,10,10,10,21,8,25,T,6,,207
2013-10-21,47,37,26,37,27,21,85,63,40,30.04,29.98,29.87,10,10,10,28,11,35,0.00,4,,300
2013-10-22,38,32,25,36,31,22,100,91,81,30.04,29.97,29.92,10,7,2,13,7,16,0.19,7,Rain-Snow,43
2013-10-23,44,36,27,34,28,22,92,68,43,30.11,30.07,30.03,10,10,8,17,9,23,0.01,6,Rain-Snow,289
2013-10-24,42,34,25,26,23,20,81,63,45,30.37,30.26,30.11,10,10,9,22,8,26,0.00,6,,323
2013-10-25,54,38,22,29,24,22,88,58,28,30.42,30.27,30.03,10,10,8,22,10,31,0.00,1,,217
2013-10-26,52,41,29,33,27,24,78,57,36,30.14,30.03,29.91,10,10,10,24,12,32,0.00,0,,286
2013-10-27,58,41,23,30,26,20,92,61,30,30.10,30.02,29.91,10,10,10,16,6,21,0.00,0,,191
2013-10-28,55,45,34,39,33,27,82,67,51,30.32,30.21,30.02,10,10,10,21,12,28,0.00,0,,74
2013-10-29,59,47,37,44,38,31,89,68,47,30.30,30.18,30.06,10,9,2,14,10,21,0.00,3,,110
2013-10-30,60,56,52,57,53,47,100,92,83,30.05,29.90,29.68,10,4,0,18,8,26,0.41,7,Fog-Rain-Thunderstorm,122
2013-10-31,61,52,42,60,47,39,100,95,89,29.65,29.51,29.41,10,6,1,18,11,22,0.10,8,Rain,273